This demonstration page uses our WeatherBlox Daily Observations layout. Learn more.

Left ArrowRight Arrow

34.02893, -84.19858

Hourly Observations for July 1, 2018

Temp ( °F °C ) Dew Point ( °F °C ) Humidity (%) Winds ( mph kmh ) Pressure ( in mb ) Visibility ( mi km ) Precip ( " mm )
12:53 am 00:53 Clear 76 24.4 70 21.1 82 82 VRB 3 6 29.98 1015 10 16 0.00 0.00
1:53 am 01:53 Clear 74 23.3 71 21.7 91 91 Calm 29.98 1015 10 16 0.00 0.00
2:53 am 02:53 Clear 74 23.3 71 21.7 91 91 Calm 29.98 1015 10 16 0.00 0.00
3:53 am 03:53 Clear 73 22.8 70 21.1 90 90 E 5 7 29.98 1015 10 16 0.00 0.00
4:53 am 04:53 Clear 72 22.2 70 21.1 94 94 E 3 6 29.99 1016 10 16 0.00 0.00
5:53 am 05:53 Partly Cloudy 72 22.2 70 21.1 94 94 VRB 5 7 30.01 1016 10 16 0.00 0.00
6:53 am 06:53 Mostly Cloudy 72 22.2 70 21.1 94 94 Calm 30.02 1017 9 14 0.00 0.00
7:53 am 07:53 Partly Cloudy 75 23.9 71 21.7 88 88 Calm 30.04 1017 10 16 0.00 0.00
8:02 am 08:02 Mostly Sunny 74 23.3 71 21.7 91 91 ENE 3 6 30.06 1018 10 16 0.00 0.00
8:53 am 08:53 Mostly Sunny 77 25 71 21.7 82 82 VRB 3 6 30.04 1017 10 16 0.00 0.00
9:18 am 09:18 Mostly Cloudy 78 25.6 71 21.7 79 79 VRB 3 6 30.03 1017 10 16 0.00 0.00
9:26 am 09:26 Partly Cloudy 77 25 72 22.2 85 85 ESE 5 7 30.06 1018 10 16 0.00 0.00
9:37 am 09:37 Mostly Cloudy 77 25 71 21.7 82 82 Calm 30.06 1018 10 16 0.00 0.00
9:53 am 09:53 Mostly Cloudy 79 26.1 71 21.7 77 77 VRB 5 7 30.04 1017 10 16 0.00 0.00
10:38 am 10:38 Mostly Cloudy 79 26.1 71 21.7 77 77 VRB 6 9 30.03 1017 10 16 0.00 0.00
10:53 am 10:53 Mostly Cloudy 79 26.1 71 21.7 77 77 VRB 6 9 30.04 1017 10 16 0.00 0.00
11:53 am 11:53 Partly Cloudy 81 27.2 71 21.7 72 72 E 6 9 30.03 1017 10 16 0.00 0.00
12:53 pm 12:53 Mostly Cloudy 83 28.3 71 21.7 67 67 VRB 7 11 30.02 1017 10 16 0.00 0.00
1:53 pm 13:53 Mostly Cloudy 84 28.9 69 20.6 61 61 SE 6 9 30.01 1016 10 16 0.00 0.00
2:53 pm 14:53 Mostly Cloudy 86 30 72 22.2 63 63 VRB 3 6 29.99 1016 10 16 0.00 0.00
3:53 pm 15:53 Mostly Cloudy 83 28.3 70 21.1 65 65 SSE 6 9 29.98 1015 10 16 0.00 0.00
4:53 pm 16:53 Cloudy with Rain 81 27.2 72 22.2 74 74 SSE 9 15 29.98 1015 3 5 0.02 0.51
5:53 pm 17:53 Mostly Cloudy 83 28.3 72 22.2 70 70 ESE 3 6 29.97 1015 7 11 0.01 0.25
6:53 pm 18:53 Partly Cloudy 82 27.8 72 22.2 72 72 S 6 9 29.98 1015 10 16 0.00 0.00
7:53 pm 19:53 Mostly Sunny 82 27.8 72 22.2 72 72 Calm 29.97 1015 10 16 0.00 0.00
8:53 pm 20:53 Mostly Cloudy 80 26.7 73 22.8 79 79 Calm 29.99 1016 10 16 0.00 0.00
9:53 pm 21:53 Clear 77 25 73 22.8 88 88 Calm 29.99 1016 10 16 0.00 0.00
10:27 pm 22:27 Cloudy with Heavy Rain 73 22.8 72 22.2 96 96 SE 12 19 30.06 1018 2 3 0.12 3.05
10:32 pm 22:32 Cloudy with Heavy Rain 73 22.8 71 21.7 94 94 VRB 5 7 30.06 1018 2 2 0.18 4.57
10:43 pm 22:43 Cloudy with Light Rain 73 22.8 71 21.7 94 94 Calm 30.03 1017 3 5 0.22 5.59
10:53 pm 22:53 Cloudy with Rain 73 22.8 72 22.2 96 96 Calm 30.02 1017 4 6 0.25 6.35
11:11 pm 23:11 Cloudy 73 22.8 72 22.2 96 96 VRB 3 6 30.06 1018 10 16 0.01 0.25
11:25 pm 23:25 Cloudy with Light Rain 74 23.3 72 22.2 94 94 Calm 30.06 1018 4 6 0.04 1.02
11:53 pm 23:53 Cloudy with Light Rain 74 23.3 73 22.8 97 97 Calm 30.02 1017 6 10 0.08 2.03

Powered by AerisWeather